Location: Adrasan
(36.3319°N, 30.4314°E)
Time: 21:47:43
(UTC+00:00)

Lacrosse 5 - Visible Passes

Search period start: 27 May 2024 00:00
Search period end: 06 June 2024 00:00
Orbit: 714 x 724 km, 57.0° (Epoch: 09 March)

Date Brightness Start Highest point End Pass type
(mag) Time Alt. Az. Time Alt. Az. Time Alt. Az.
27 May 2.8 17:42:30 10° NW 17:47:20 43° SW 17:52:08 10° SSE visible
28 May 4.5 18:35:37 10° WSW 18:36:30 10° WSW 18:37:23 10° SW visible
29 May 3.9 17:39:48 10° WNW 17:43:42 22° WSW 17:47:36 10° S visible
31 May 4.7 17:38:54 10° WSW 17:39:58 11° WSW 17:41:01 10° SW visible
